Time,TemperatureF,DewpointF,PressureIn,WindDirection,WindDirectionDegrees,WindSpeedMPH,WindSpeedGustMPH,Humidity,HourlyPrecipIn,Conditions,Clouds,dailyrainin,SoftwareType,DateUTC
2013-08-11 00:03:00,53.0,33.0,-100.00,SE,140,2.0,5.0,46,0.00,,,0.00,,2013-08-11 07:03:00,
2013-08-11 00:13:00,53.0,33.0,-100.00,SE,140,2.0,5.0,46,0.00,,,0.00,,2013-08-11 07:13:00,
2013-08-11 00:46:00,61.0,42.0,-100.00,SE,128,8.0,12.0,49,0.00,,,0.00,,2013-08-11 07:46:00,
2013-08-11 00:55:00,61.0,42.0,-100.00,SE,128,8.0,12.0,49,0.00,,,0.00,,2013-08-11 07:55:00,
2013-08-11 01:04:00,61.0,42.0,-100.00,SE,128,8.0,12.0,49,0.00,,,0.00,,2013-08-11 08:04:00,
2013-08-11 01:13:00,61.0,42.0,-100.00,SE,128,8.0,12.0,49,0.00,,,0.00,,2013-08-11 08:13:00,
2013-08-11 01:49:00,60.0,47.0,-100.00,SE,134,10.0,19.0,61,0.00,,,0.00,,2013-08-11 08:49:00,
2013-08-11 01:58:00,60.0,47.0,-100.00,SE,134,10.0,19.0,61,0.00,,,0.00,,2013-08-11 08:58:00,
2013-08-11 02:12:00,60.0,47.0,-100.00,SE,134,10.0,19.0,61,0.00,,,0.00,,2013-08-11 09:12:00,
2013-08-11 02:44:00,60.0,48.0,-100.00,SE,130,9.0,17.0,64,0.00,,,0.00,,2013-08-11 09:44:00,
2013-08-11 02:59:00,60.0,48.0,-100.00,SE,130,9.0,17.0,64,0.00,,,0.00,,2013-08-11 09:59:00,
2013-08-11 03:13:00,60.0,48.0,-100.00,SE,130,9.0,17.0,64,0.00,,,0.00,,2013-08-11 10:13:00,
2013-08-11 03:47:00,60.0,44.0,-100.00,ESE,118,6.0,15.0,55,0.00,,,0.00,,2013-08-11 10:47:00,
2013-08-11 03:57:00,60.0,44.0,-100.00,ESE,118,6.0,15.0,55,0.00,,,0.00,,2013-08-11 10:57:00,
2013-08-11 04:04:00,60.0,44.0,-100.00,ESE,118,6.0,15.0,55,0.00,,,0.00,,2013-08-11 11:04:00,
2013-08-11 04:12:00,60.0,44.0,-100.00,ESE,118,6.0,15.0,55,0.00,,,0.00,,2013-08-11 11:12:00,
2013-08-11 04:49:00,55.0,41.0,-100.00,SE,144,4.0,11.0,58,0.00,,,-99.99,,2013-08-11 11:49:00,
2013-08-11 04:58:00,55.0,41.0,-100.00,SE,144,4.0,11.0,58,0.00,,,-99.99,,2013-08-11 11:58:00,
2013-08-11 05:04:00,55.0,41.0,-100.00,SE,144,4.0,11.0,58,0.00,,,-99.99,,2013-08-11 12:04:00,
2013-08-11 05:12:00,55.0,41.0,-100.00,SE,144,4.0,11.0,58,0.00,,,-99.99,,2013-08-11 12:12:00,
2013-08-11 05:47:00,60.0,37.0,-100.00,SE,125,5.0,9.0,43,0.00,,,-99.99,,2013-08-11 12:47:00,
2013-08-11 05:55:00,60.0,37.0,-100.00,SE,125,5.0,9.0,43,0.00,,,-99.99,,2013-08-11 12:55:00,
2013-08-11 06:03:00,60.0,37.0,-100.00,SE,125,5.0,9.0,43,0.00,,,-99.99,,2013-08-11 13:03:00,
2013-08-11 06:12:00,60.0,37.0,-100.00,SE,125,5.0,9.0,43,0.00,,,-99.99,,2013-08-11 13:12:00,
2013-08-11 08:58:00,71.0,40.0,-100.00,ESE,116,6.0,10.0,33,0.00,,,0.00,,2013-08-11 15:58:00,
2013-08-11 09:03:00,71.0,40.0,-100.00,ESE,116,6.0,10.0,33,0.00,,,0.00,,2013-08-11 16:03:00,
2013-08-11 09:12:00,71.0,40.0,-100.00,ESE,116,6.0,10.0,33,0.00,,,0.00,,2013-08-11 16:12:00,
2013-08-11 09:47:00,74.0,44.0,-100.00,ESE,103,7.0,11.0,34,0.00,,,0.00,,2013-08-11 16:47:00,
2013-08-11 09:56:00,74.0,44.0,-100.00,ESE,103,7.0,11.0,34,0.00,,,0.00,,2013-08-11 16:56:00,
2013-08-11 10:12:00,74.0,44.0,-100.00,ESE,103,7.0,11.0,34,0.00,,,0.00,,2013-08-11 17:12:00,
2013-08-11 10:56:00,75.0,44.0,-100.00,East,100,8.0,16.0,33,0.00,,,-99.99,,2013-08-11 17:56:00,
2013-08-11 11:04:00,75.0,44.0,-100.00,East,100,8.0,16.0,33,0.00,,,-99.99,,2013-08-11 18:04:00,
2013-08-11 11:14:00,75.0,44.0,-100.00,East,100,8.0,16.0,33,0.00,,,-99.99,,2013-08-11 18:14:00,
2013-08-11 11:55:00,78.0,43.0,-100.00,ESE,117,6.0,14.0,29,0.00,,,0.00,,2013-08-11 18:55:00,
2013-08-11 12:04:00,78.0,43.0,-100.00,ESE,117,6.0,14.0,29,0.00,,,0.00,,2013-08-11 19:04:00,
2013-08-11 12:12:00,78.0,43.0,-100.00,ESE,117,6.0,14.0,29,0.00,,,0.00,,2013-08-11 19:12:00,
2013-08-11 12:51:00,78.0,42.0,-100.00,SE,141,7.0,18.0,28,0.00,,,0.00,,2013-08-11 19:51:00,
2013-08-11 12:58:00,78.0,42.0,-100.00,SE,141,7.0,18.0,28,0.00,,,0.00,,2013-08-11 19:58:00,
2013-08-11 13:16:00,78.0,42.0,-100.00,SE,141,7.0,18.0,28,0.00,,,0.00,,2013-08-11 20:16:00,
2013-08-11 13:49:00,80.0,43.0,-100.00,SW,217,6.0,19.0,27,0.00,,,0.00,,2013-08-11 20:49:00,
2013-08-11 13:57:00,80.0,43.0,-100.00,SW,217,6.0,19.0,27,0.00,,,0.00,,2013-08-11 20:57:00,
2013-08-11 14:02:00,80.0,43.0,-100.00,SW,217,6.0,19.0,27,0.00,,,0.00,,2013-08-11 21:02:00,
2013-08-11 14:11:00,80.0,43.0,-100.00,SW,217,6.0,19.0,27,0.00,,,0.00,,2013-08-11 21:11:00,
2013-08-11 14:49:00,79.0,41.0,-100.00,South,180,7.0,16.0,26,0.00,,,0.00,,2013-08-11 21:49:00,
2013-08-11 14:57:00,79.0,41.0,-100.00,South,180,7.0,16.0,26,0.00,,,0.00,,2013-08-11 21:57:00,
2013-08-11 15:03:00,79.0,41.0,-100.00,South,180,7.0,16.0,26,0.00,,,0.00,,2013-08-11 22:03:00,
2013-08-11 15:13:00,79.0,41.0,-100.00,South,180,7.0,16.0,26,0.00,,,0.00,,2013-08-11 22:13:00,
2013-08-11 15:47:00,78.0,42.0,-100.00,South,186,5.0,17.0,28,0.00,,,0.00,,2013-08-11 22:47:00,
2013-08-11 15:56:00,78.0,42.0,-100.00,South,186,5.0,17.0,28,0.00,,,0.00,,2013-08-11 22:56:00,
2013-08-11 16:12:00,78.0,42.0,-100.00,South,186,5.0,17.0,28,0.00,,,0.00,,2013-08-11 23:12:00,
2013-08-11 16:48:00,79.0,42.0,-100.00,SSW,206,4.0,17.0,27,0.00,,,0.00,,2013-08-11 23:48:00,
2013-08-11 16:57:00,79.0,42.0,-100.00,SSW,206,4.0,17.0,27,0.00,,,0.00,,2013-08-11 23:57:00,
2013-08-11 17:51:00,74.0,46.0,-100.00,ESE,117,8.0,19.0,37,0.00,,,0.00,,2013-08-12 00:51:00,
2013-08-11 17:56:00,74.0,46.0,-100.00,ESE,117,8.0,19.0,37,0.00,,,0.00,,2013-08-12 00:56:00,
2013-08-11 18:04:00,74.0,46.0,-100.00,ESE,117,8.0,19.0,37,0.00,,,0.00,,2013-08-12 01:04:00,
2013-08-11 18:13:00,74.0,46.0,-100.00,ESE,117,8.0,19.0,37,0.00,,,0.00,,2013-08-12 01:13:00,
2013-08-11 18:48:00,70.0,45.0,-100.00,SE,130,10.0,20.0,41,0.00,,,0.00,,2013-08-12 01:48:00,
2013-08-11 18:55:00,70.0,45.0,-100.00,SE,130,10.0,20.0,41,0.00,,,0.00,,2013-08-12 01:55:00,
2013-08-11 19:04:00,70.0,45.0,-100.00,SE,130,10.0,20.0,41,0.00,,,0.00,,2013-08-12 02:04:00,
2013-08-11 19:49:00,69.0,42.0,-100.00,SE,126,7.0,16.0,38,0.00,,,0.00,,2013-08-12 02:49:00,
2013-08-11 20:04:00,69.0,42.0,-100.00,SE,126,7.0,16.0,38,0.00,,,0.00,,2013-08-12 03:04:00,
2013-08-11 20:12:00,69.0,42.0,-100.00,SE,126,7.0,16.0,38,0.00,,,0.00,,2013-08-12 03:12:00,
2013-08-11 21:00:00,67.0,42.0,-100.00,SE,134,7.0,13.0,40,0.00,,,0.00,,2013-08-12 04:00:00,
2013-08-11 21:02:00,67.0,42.0,-100.00,SE,134,7.0,13.0,40,0.00,,,0.00,,2013-08-12 04:02:00,
2013-08-11 21:12:00,67.0,42.0,-100.00,SE,134,7.0,13.0,40,0.00,,,0.00,,2013-08-12 04:12:00,
2013-08-11 21:43:00,65.0,43.0,-100.00,SE,140,7.0,16.0,44,0.00,,,0.00,,2013-08-12 04:43:00,
2013-08-11 21:52:00,65.0,43.0,-100.00,SE,140,7.0,16.0,44,0.00,,,0.00,,2013-08-12 04:52:00,
2013-08-11 22:02:00,65.0,43.0,-100.00,SE,140,7.0,16.0,44,0.00,,,0.00,,2013-08-12 05:02:00,
2013-08-11 22:11:00,65.0,43.0,-100.00,SE,140,7.0,16.0,44,0.00,,,0.00,,2013-08-12 05:11:00,
2013-08-11 22:43:00,65.0,43.0,-100.00,SE,132,9.0,15.0,44,0.00,,,0.00,,2013-08-12 05:43:00,
2013-08-11 22:52:00,65.0,43.0,-100.00,SE,132,9.0,15.0,44,0.00,,,0.00,,2013-08-12 05:52:00,
2013-08-11 23:01:00,65.0,43.0,-100.00,SE,132,9.0,15.0,44,0.00,,,0.00,,2013-08-12 06:01:00,
2013-08-11 23:11:00,65.0,43.0,-100.00,SE,132,9.0,15.0,44,0.00,,,0.00,,2013-08-12 06:11:00,
2013-08-11 23:42:00,64.0,43.0,-100.00,SE,128,8.0,16.0,47,0.00,,,0.00,,2013-08-12 06:42:00,
2013-08-11 23:52:00,64.0,43.0,-100.00,SE,128,8.0,16.0,47,0.00,,,0.00,,2013-08-12 06:52:00,